When you browse on this site, cookies collect data to enhance your experience and personalize the content and advertising you see.
Visit our Privacy Policy to learn more. By continuing to use the site, you agree to this use of cookies and data.
  • In France
  • List of Countries
  • For 7 days
  • Water Temperature
  • Weather Map
  • Weather Widgets
  • user-avatar
    Login

    Hourly Weather Mangotsfield

    Today, 19 August, Monday

    Time Temperature Precipitation Wind Pressure Humidity
    00:00 +12°C° 0 mm 5 mps 751 mmHg 89%
    01:00 +12°C° 0 mm 5 mps 751 mmHg 89%
    02:00 +12°C° 0 mm 5 mps 752 mmHg 89%
    03:00 +12°C° 0 mm 5 mps 752 mmHg 89%
    04:00 +12°C° 0 mm 4 mps 752 mmHg 90%
    05:00 +12°C° 0 mm 4 mps 752 mmHg 91%
    06:00 +12°C° 0 mm 4 mps 753 mmHg 92%
    07:00 +14°C° 0 mm 4 mps 753 mmHg 86%
    08:00 +15°C° 0 mm 4 mps 754 mmHg 80%
    09:00 +16°C° 0 mm 5 mps 754 mmHg 73%
    10:00 +17°C° 0.2 mm 6 mps 755 mmHg 72%
    11:00 +17°C° 0.2 mm 6 mps 755 mmHg 70%
    12:00 +18°C° 0.2 mm 7 mps 755 mmHg 68%
    13:00 +18°C° 0.1 mm 7 mps 755 mmHg 66%
    14:00 +18°C° 0.1 mm 7 mps 756 mmHg 64%
    15:00 +18°C° 0.1 mm 7 mps 756 mmHg 62%
    16:00 +17°C° 0 mm 7 mps 756 mmHg 65%
    17:00 +16°C° 0 mm 6 mps 756 mmHg 67%
    18:00 +16°C° 0 mm 5 mps 757 mmHg 70%
    19:00 +14°C° 0 mm 5 mps 757 mmHg 76%
    20:00 +13°C° 0 mm 4 mps 757 mmHg 81%
    21:00 +12°C° 0 mm 3 mps 758 mmHg 86%
    22:00 +12°C° 0 mm 3 mps 758 mmHg 87%
    23:00 +11°C° 0 mm 3 mps 758 mmHg 89%

    Tomorrow, 20 August, Tuesday

    Time Temperature Precipitation Wind Pressure Humidity
    00:00 +11°C° 0 mm 3 mps 758 mmHg 90%
    01:00 +12°C° 0 mm 2 mps 759 mmHg 90%
    02:00 +10°C° 0 mm 2 mps 759 mmHg 90%
    03:00 +10°C° 0 mm 2 mps 759 mmHg 90%
    04:00 +10°C° 0 mm 2 mps 759 mmHg 90%
    05:00 +10°C° 0 mm 2 mps 760 mmHg 90%
    06:00 +10°C° 0 mm 3 mps 760 mmHg 89%
    07:00 +12°C° 0 mm 3 mps 760 mmHg 82%
    08:00 +13°C° 0 mm 4 mps 761 mmHg 74%
    09:00 +14°C° 0 mm 4 mps 761 mmHg 66%
    10:00 +15°C° 0 mm 4 mps 761 mmHg 65%
    11:00 +16°C° 0 mm 5 mps 762 mmHg 63%
    12:00 +16°C° 0 mm 5 mps 762 mmHg 61%
    13:00 +17°C° 0 mm 5 mps 762 mmHg 62%
    14:00 +17°C° 0 mm 5 mps 762 mmHg 64%
    15:00 +17°C° 0 mm 5 mps 762 mmHg 65%
    16:00 +17°C° 0 mm 5 mps 762 mmHg 69%
    17:00 +16°C° 0 mm 5 mps 762 mmHg 73%
    18:00 +17°C° 0 mm 4 mps 763 mmHg 76%
    19:00 +15°C° 0 mm 4 mps 763 mmHg 81%
    20:00 +14°C° 0 mm 3 mps 763 mmHg 86%
    21:00 +12°C° 0 mm 3 mps 763 mmHg 90%
    22:00 +13°C° 0 mm 2 mps 763 mmHg 91%
    23:00 +13°C° 0 mm 2 mps 763 mmHg 92%

    Day after tomorrow, 21 August, Wednesday

    Time Temperature Precipitation Wind Pressure Humidity
    00:00 +13°C° 0 mm 2 mps 763 mmHg 92%
    01:00 +13°C° 0 mm 2 mps 763 mmHg 92%
    02:00 +12°C° 0 mm 2 mps 763 mmHg 93%
    03:00 +12°C° 0 mm 2 mps 763 mmHg 93%
    04:00 +12°C° 0 mm 2 mps 763 mmHg 92%
    05:00 +12°C° 0 mm 2 mps 763 mmHg 91%
    06:00 +13°C° 0 mm 2 mps 763 mmHg 90%
    07:00 +13°C° 0 mm 3 mps 763 mmHg 84%
    08:00 +14°C° 0 mm 3 mps 763 mmHg 79%
    09:00 +17°C° 0 mm 4 mps 763 mmHg 74%
    10:00 +18°C° 0 mm 4 mps 763 mmHg 70%
    11:00 +19°C° 0 mm 5 mps 762 mmHg 66%
    12:00 +20°C° 0 mm 5 mps 762 mmHg 62%
    13:00 +19°C° 0 mm 5 mps 762 mmHg 62%
    14:00 +19°C° 0 mm 5 mps 762 mmHg 62%
    15:00 +19°C° 0 mm 5 mps 762 mmHg 62%
    16:00 +19°C° 0.1 mm 5 mps 761 mmHg 67%
    17:00 +17°C° 0.1 mm 5 mps 761 mmHg 71%
    18:00 +17°C° 0.1 mm 4 mps 761 mmHg 76%
    19:00 +15°C° 0 mm 4 mps 761 mmHg 79%
    20:00 +14°C° 0 mm 4 mps 761 mmHg 82%
    21:00 +13°C° 0 mm 4 mps 761 mmHg 86%
    22:00 +13°C° 0 mm 4 mps 761 mmHg 85%
    23:00 +13°C° 0 mm 4 mps 761 mmHg 85%

    22 August, Thursday

    Time Temperature Precipitation Wind Pressure Humidity
    00:00 +13°C° 0 mm 5 mps 760 mmHg 85%
    01:00 +13°C° 0.3 mm 5 mps 760 mmHg 87%
    02:00 +14°C° 0.3 mm 5 mps 760 mmHg 88%
    03:00 +14°C° 0.3 mm 5 mps 760 mmHg 90%
    04:00 +14°C° 0.1 mm 4 mps 760 mmHg 91%
    05:00 +13°C° 0.1 mm 3 mps 760 mmHg 92%
    06:00 +13°C° 0.1 mm 3 mps 761 mmHg 93%
    07:00 +14°C° 0.1 mm 3 mps 761 mmHg 87%
    08:00 +15°C° 0.1 mm 4 mps 761 mmHg 81%
    09:00 +18°C° 0.1 mm 4 mps 762 mmHg 75%
    10:00 +17°C° 0 mm 5 mps 762 mmHg 70%
    11:00 +19°C° 0 mm 5 mps 762 mmHg 66%
    12:00 +20°C° 0 mm 5 mps 762 mmHg 61%
    13:00 +20°C° 0 mm 5 mps 761 mmHg 61%
    14:00 +20°C° 0 mm 5 mps 761 mmHg 61%
    15:00 +21°C° 0 mm 5 mps 761 mmHg 61%
    16:00 +20°C° 0 mm 4 mps 761 mmHg 65%
    17:00 +20°C° 0 mm 4 mps 761 mmHg 70%
    18:00 +19°C° 0 mm 3 mps 761 mmHg 75%
    19:00 +18°C° 0 mm 3 mps 761 mmHg 80%
    20:00 +17°C° 0 mm 2 mps 762 mmHg 85%
    21:00 +15°C° 0 mm 2 mps 762 mmHg 90%
    22:00 +15°C° 0 mm 2 mps 762 mmHg 91%
    23:00 +15°C° 0 mm 2 mps 761 mmHg 92%

    23 August, Friday

    Time Temperature Precipitation Wind Pressure Humidity
    00:00 +15°C° 0 mm 2 mps 761 mmHg 93%
    01:00 +15°C° 0 mm 2 mps 761 mmHg 93%
    02:00 +15°C° 0 mm 2 mps 761 mmHg 93%
    03:00 +14°C° 0 mm 2 mps 760 mmHg 94%
    04:00 +14°C° 0 mm 2 mps 760 mmHg 94%
    05:00 +15°C° 0 mm 2 mps 761 mmHg 94%
    06:00 +15°C° 0 mm 2 mps 761 mmHg 94%
    07:00 +16°C° 0 mm 2 mps 761 mmHg 88%
    08:00 +18°C° 0 mm 3 mps 761 mmHg 83%
    09:00 +19°C° 0 mm 3 mps 761 mmHg 78%
    10:00 +20°C° 0 mm 3 mps 761 mmHg 74%
    11:00 +21°C° 0 mm 3 mps 760 mmHg 69%
    12:00 +22°C° 0 mm 3 mps 760 mmHg 65%
    13:00 +22°C° 0 mm 3 mps 760 mmHg 64%
    14:00 +24°C° 0 mm 3 mps 760 mmHg 62%
    15:00 +24°C° 0 mm 2 mps 759 mmHg 61%
    16:00 +23°C° 0 mm 2 mps 759 mmHg 65%
    17:00 +23°C° 0 mm 2 mps 759 mmHg 69%
    18:00 +21°C° 0 mm 2 mps 759 mmHg 72%
    19:00 +20°C° 0 mm 2 mps 759 mmHg 77%
    20:00 +19°C° 0 mm 1 mps 759 mmHg 82%
    21:00 +16°C° 0 mm 1 mps 759 mmHg 86%
    22:00 +16°C° 0 mm 1 mps 758 mmHg 86%
    23:00 +15°C° 0 mm 1 mps 758 mmHg 87%

    24 August, Saturday

    Time Temperature Precipitation Wind Pressure Humidity
    00:00 +15°C° 0 mm 1 mps 758 mmHg 87%
    01:00 +15°C° 0 mm 1 mps 758 mmHg 87%
    02:00 +14°C° 0 mm 1 mps 757 mmHg 86%
    03:00 +14°C° 0 mm 1 mps 757 mmHg 86%
    04:00 +14°C° 0 mm 1 mps 757 mmHg 85%
    05:00 +14°C° 0 mm 1 mps 757 mmHg 84%
    06:00 +15°C° 0 mm 1 mps 756 mmHg 83%
    07:00 +16°C° 0 mm 2 mps 756 mmHg 78%
    08:00 +18°C° 0 mm 2 mps 756 mmHg 73%
    09:00 +20°C° 0 mm 2 mps 756 mmHg 67%
    10:00 +22°C° 0 mm 3 mps 756 mmHg 63%
    11:00 +24°C° 0 mm 3 mps 756 mmHg 59%
    12:00 +26°C° 0 mm 4 mps 756 mmHg 55%
    13:00 +26°C° 0 mm 4 mps 755 mmHg 55%
    14:00 +26°C° 0 mm 4 mps 755 mmHg 55%
    15:00 +26°C° 0 mm 5 mps 755 mmHg 55%
    16:00 +25°C° 0 mm 4 mps 755 mmHg 60%
    17:00 +23°C° 0 mm 4 mps 755 mmHg 65%
    18:00 +21°C° 0 mm 3 mps 754 mmHg 71%
    19:00 +20°C° 0 mm 3 mps 754 mmHg 75%
    20:00 +19°C° 0 mm 3 mps 754 mmHg 80%
    21:00 +17°C° 0 mm 2 mps 754 mmHg 85%
    22:00 +16°C° 0 mm 2 mps 754 mmHg 85%
    23:00 +16°C° 0 mm 2 mps 754 mmHg 86%
    Show more